This is the latest recevied weather packets stored in our database for station/object N3AVN. If no packets are shown the sender has not sent any weather packets the latest 10 day(s).
| Time | Temp. | Humidity | Pressure | Rain* | Wind** | Luminosity | Snow |
|---|---|---|---|---|---|---|---|
| 1778064987 | 14.44° C | 91% | 1008.6 hPa | 0 mm | - | 44 W/m² | - |
| 1778064684 | 13.89° C | 91% | 1008.5 hPa | 0 mm | - | 48 W/m² | - |
| 1778064383 | 13.89° C | 92% | 1008.5 hPa | 0 mm | - | 44 W/m² | - |
| 1778064080 | 13.89° C | 92% | 1008.5 hPa | 0 mm | - | 22 W/m² | - |
| 1778063777 | 13.89° C | 92% | 1008.5 hPa | 0 mm | - | 15 W/m² | - |
| 1778063474 | 13.89° C | 92% | 1008.7 hPa | 0 mm | - | 16 W/m² | - |
| 1778063172 | 13.33° C | 92% | 1008.5 hPa | 0 mm | - | 16 W/m² | - |
| 1778062869 | 13.33° C | 92% | 1008.4 hPa | 0 mm | - | 20 W/m² | - |
| 1778062566 | 13.33° C | 92% | 1008.2 hPa | 0 mm | - | 21 W/m² | - |
| 1778062263 | 13.33° C | 92% | 1008.2 hPa | 0 mm | - | 18 W/m² | - |
| 1778061961 | 13.33° C | 92% | 1008.3 hPa | 0 mm | - | 12 W/m² | - |
| 1778061659 | 13.33° C | 92% | 1008.2 hPa | 0 mm | - | 7 W/m² | - |
| 1778061357 | 13.33° C | 91% | 1008.1 hPa | 0 mm | - | 2 W/m² | - |
| 1778061053 | 13.89° C | 90% | 1008.3 hPa | 0 mm | - | 0 W/m² | - |
| 1778060751 | 13.89° C | 90% | 1008.4 hPa | 0 mm | - | 0 W/m² | - |
| 1778060449 | 13.89° C | 90% | 1008.1 hPa | 0 mm | - | 0 W/m² | - |
| 1778060147 | 13.89° C | 90% | 1008.1 hPa | 0 mm | - | 0 W/m² | - |
| 1778059844 | 13.89° C | 89% | 1008 hPa | 0 mm | - | 0 W/m² | - |
| 1778059542 | 13.89° C | 89% | 1008.3 hPa | 0 mm | - | 0 W/m² | - |
| 1778059238 | 13.89° C | 89% | 1007.9 hPa | 0 mm | - | 0 W/m² | - |
| 1778058937 | 13.89° C | 89% | 1008.4 hPa | 0 mm | - | 0 W/m² | - |
| 1778058634 | 13.89° C | 89% | 1008.2 hPa | 0 mm | - | 0 W/m² | - |
| 1778058332 | 13.89° C | 88% | 1008.2 hPa | 0 mm | - | 0 W/m² | - |
| 1778058027 | 14.44° C | 88% | 1008.2 hPa | 0 mm | - | 0 W/m² | - |
| 1778057725 | 14.44° C | 88% | 1008.4 hPa | 0 mm | - | 0 W/m² | - |
* Rain latest hour (hover to see other rain measurements)
** Current wind speed in m/s (hover to see current wind gust speed)